Location: *
(0.1100°N, 5.5000°E)
Time: 06:29:57
(UTC+00:00)

Daily predictions for brighter satellites

Satellite Brightness Start Highest point End
(mag) Time Altitude Azimuth Time Altitude Azimuth Time Altitude Azimuth
CZ-3 Stage 3 2.8 17:52:02 10° WNW 17:55:17 89° NE 18:07:08 10° ESE
DELTA 2 R/B (1) 4.1 17:52:29 10° NNW 17:57:42 43° NE 18:02:56 10° ESE
Cosmos 2237 Rocket 2.2 17:52:16 10° S 17:57:51 72° ESE 18:03:26 10° NNE
ARIANE 5 R/B 3.8 17:53:57 10° WSW 18:00:26 41° S 18:04:00 10° ESE
Cosmos 2263 Rocket 2.2 17:56:18 10° NNW 18:01:55 81° ENE 18:07:30 10° SSE
ALOS 2.2 17:59:32 10° SSE 18:04:11 72° ENE 18:08:49 10° N
Skynet4D Del rocket 4.1 18:01:05 10° WNW 18:06:32 53° SSW 18:11:45 10° SE
Cosmos 1809 Rocket 4.5 18:01:10 10° S 18:07:14 64° E 18:13:17 10° NNE
Cosmos 1455 3.1 18:04:55 10° SSE 18:08:12 28° E 18:11:29 10° NNE
YAOGAN 1 2.5 18:06:45 10° SSE 18:11:05 87° ENE 18:15:24 10° N
Meteor 2-8 Rocket 4.4 18:05:58 10° N 18:12:07 77° E 18:18:16 10° S
SWIFT 4.2 18:11:07 10° WNW 18:14:45 27° NNW 18:18:23 10° NE
Cosmos 1151 Rocket 4.3 18:13:27 10° SE 18:16:32 20° E 18:19:36 10° NE
CZ-4 R/B 2.7 18:12:49 10° S 18:16:36 43° WSW 18:20:26 10° NNW
Meteor 2-14 Rocket 4.5 18:12:05 10° S 18:18:00 56° E 18:23:56 10° NNE
Cosmos 2341 Rocket 4.4 18:12:43 10° SSE 18:18:42 42° E 18:24:37 10° NNE
MOS 1 4.3 18:21:09 10° SSE 18:26:45 59° ENE 18:32:19 10° N
Cosmos 2056 Rocket 3.8 18:22:37 10° S 18:27:46 46° ESE 18:32:56 10° NNE
Meteor 2-16 Rocket 4.5 18:24:14 10° S 18:30:17 58° E 18:36:16 10° NNE
FREGAT/IRIS 4.4 18:31:41 17° ENE 18:31:41 17° ENE 18:33:01 10° NNE
IRAS Rocket 4.2 18:31:06 10° SSE 18:36:36 68° ENE 18:42:02 10° N
Atlas 2A Centaur Rocket 2.1 18:37:54 10° WSW 18:40:38 87° SSE 18:50:10 10° ENE
ARIANE 5 R/B 4.4 18:36:50 10° WSW 18:41:18 37° S 18:42:47 25° SE
NOAA 12 4.4 18:36:56 10° S 18:42:13 69° WSW 18:47:25 10° NNW
Cosmos 1624 Rocket 3.9 18:38:54 10° S 18:44:08 78° ESE 18:49:18 10° NNE
ARIANE 5 R/B 3.7 18:40:21 10° W 18:44:34 84° S 18:58:58 22° E
ARIANE 5 R/B 3.7 18:40:21 10° W 18:44:35 84° S 18:58:56 22° E
ARIANE 5 R/B 3.7 18:40:21 10° W 18:44:35 84° S 18:58:58 22° E
Cosmos 1666 Rocket 4.2 18:41:38 10° NNE 18:45:33 32° E 18:45:49 32° E
Sich 1 3.5 18:42:10 10° NNE 18:46:06 36° E 18:46:50 34° ESE
ARIANE 5 R/B 2.4 18:38:08 10° W 18:46:28 83° S 18:47:27 41° E
Cosmos 2251 Rocket 4.2 18:42:13 10° NNE 18:46:57 32° ENE 18:48:01 30° E
In-Cosmos 22 Rocket 4.0 18:42:10 10° N 18:47:25 66° E 18:52:41 10° SSE
SEDSat Delta rocket 2.9 18:45:17 10° SW 18:49:16 56° SE 18:50:23 40° E
SL-16 R/B 2.1 18:45:12 10° SSW 18:50:53 82° ESE 18:56:32 10° NNE
Cosmos 2098 Rocket 4.3 18:46:03 10° SSE 18:51:24 31° E 18:55:46 10° NE
BLOCK DM-SL R/B 3.4 18:26:12 10° W 18:55:43 76° N 18:58:08 32° ENE
H-2A R/B 3.4 18:53:36 10° S 18:57:12 52° W 19:00:48 10° NNW
Ariane H10 3.4 18:55:39 10° WNW 18:58:40 73° N 19:01:16 33° E
Ariane H10+ 3.7 18:54:36 10° WNW 18:58:46 64° N 19:04:10 27° E
Cosmos 1515 Rocket 3.8 19:01:45 10° S 19:06:10 71° W 19:10:36 10° N
CZ-4C R/B 1.7 19:02:19 10° SSW 19:07:10 86° WNW 19:12:04 10° NNE
SPOT 3 Rocket 3.9 19:02:26 10° S 19:07:35 63° WSW 19:12:41 10° NNW
USA 267 3.4 19:06:59 38° E 19:08:46 46° SE 19:14:58 10° SSW
Cosmos 1633 Rocket 3.6 19:09:45 10° N 19:12:53 45° NNE 19:12:53 45° NNE
ARIANE 5 DEB (SYLDA) 3.8 19:12:08 10° WSW 19:14:12 22° SW 19:14:12 22° SW
Ariane H10-3 3.7 19:14:38 10° WSW 19:15:12 15° WSW 19:15:12 15° WSW
Nadezhda 3 Rocket 3.9 19:12:41 10° N 19:19:03 84° E 19:23:10 24° S
ATLAS 3B CENTAUR R/B 3.4 19:10:44 10° NW 19:23:09 42° NNE 19:24:45 37° NE
Cosmos 2344 4.1 19:18:09 10° SSW 19:27:08 63° WNW 19:34:39 10° NNE
Delta 198 4.1 19:23:11 10° WSW 19:26:34 52° SW 19:26:34 52° SW
BLOCK DM-SL R/B 4.0 19:13:48 10° W 19:36:46 89° S 19:38:06 63° E
Cosmos 1844 Rocket 3.0 19:36:49 10° NNW 19:42:21 62° WSW 19:42:31 61° WSW
Meteor 2-3 Rocket 4.1 19:40:36 10° N 19:45:05 57° NNW 19:45:05 57° NNW
Envisat 4.0 19:51:42 43° WNW 19:51:42 43° WNW 19:55:26 10° NNW
ATLAS 2AS CENTAUR R/B 4.2 20:10:17 10° NNW 20:13:21 27° N 20:13:21 27° N
ARIANE 5 R/B 4.5 20:39:34 10° W 20:54:30 37° WSW 20:54:30 37° WSW
